SCP
0 0 0 0 0 0 0 0 0 0 0 0 0 0 0 0 0 0 0 0 0 0
0 0 0 0 0 0 0 0 0 0 0 0 0 0 0 0 0 0 0 0 0 0
0 0 0 0 0 0 0 0 0 0 0 0 0 0 0 0 0 0 0 0 0 0
0 0 0 0 0 0 0 0 0 0 0 0 0 0 0 0 0 0 0 0 0 0
0 0 0 0 0 0 0 0 0 0 0 0 0 0 0 0 0 0 0 0 0 0
0 0 0 0 0 0 0 0 0 0 0 0 0 0 0 0 0 0 0 0 0 0
0 0 0 0 0 0 0 0 0 0 0 0 0 0 0 0 0 0 0 0 0 0
0 0 0 0 0 0 0 0 0 0 0 0 0 0 0 0 0 0 0 0 0 0
0 0 0 0 0 0 0 0 0 0 0 0 0 0 0 0 0 0 0 0 0 0
0 0 0 0 0 0 0 0 0 0 0 0 0 0 0 0 0 0 0 0 0 0
0 0 0 0 0 0 0 0 0 0 0 0 0 0 0 0 0 0 0 0 0 0
0 0 0 0 0 0 -0 0 0 0 0 0 0 0 0 0 0 0 0 0 0 0
0 0 0 0 0 -0 0 0 0 0 0 0 0 0 0 0 0 0 0 0 0 0
0 0 0 0 0 0 0 -0 -0 0 0 0 0 0 -0 0 0 0 0 0 0 0
Wind_Speed_500mb
32 35 38 41 45 48 50 51 53 55 58 61 61 63 63 67 69 72 78 81 83 85
31 34 37 41 45 49 52 55 58 60 64 66 68 67 65 68 71 74 78 82 86 91
26 27 29 32 34 37 39 43 46 49 54 58 62 66 67 68 69 69 76 81 83 86
26 27 28 30 33 36 38 40 42 44 44 45 46 48 56 64 67 71 72 74 79 89
28 29 29 30 32 34 36 39 42 45 46 47 47 47 49 53 58 66 72 74 76 86
30 28 28 28 30 32 37 40 43 46 48 49 49 50 49 51 52 54 61 67 71 80
32 29 27 27 29 32 38 43 46 49 50 50 52 50 49 53 56 59 62 62 66 73
34 30 26 27 32 37 42 47 52 56 57 58 59 57 56 57 61 65 71 72 72 72
39 35 31 35 42 48 53 57 62 65 67 68 68 66 63 64 70 74 77 79 79 79
42 38 37 42 49 56 63 68 72 76 77 77 77 76 76 75 80 84 85 85 86 90
43 43 44 49 56 65 73 79 86 89 89 88 87 86 86 86 88 91 91 90 89 95
44 52 56 61 69 77 85 91 97 101 102 100 101 94 90 88 89 95 97 91 91 95
55 60 65 70 78 87 93 100 105 112 110 109 110 101 93 90 93 97 96 97 96 96
57 64 71 79 85 93 101 109 115 119 121 117 113 112 102 93 93 93 96 100 106 104
Wind_Direction_500mb
243 251 257 261 265 270 274 278 282 285 287 289 291 290 286 285 284 285 285 285 283 283
241 247 254 260 266 271 276 282 284 286 287 288 290 291 291 287 284 283 283 285 287 287
250 261 270 276 280 282 284 287 289 290 291 291 291 291 291 289 287 282 281 283 283 282
275 280 283 285 286 287 289 290 292 294 297 300 302 299 291 287 287 285 282 278 277 281
275 278 280 283 286 290 293 295 298 298 298 300 302 303 304 300 292 288 286 283 280 280
262 265 274 282 289 293 296 298 298 299 300 301 303 305 307 305 303 300 293 290 286 283
253 265 278 289 297 303 307 307 304 303 304 306 305 307 309 306 305 303 300 298 295 289
258 268 280 293 303 309 311 312 311 308 305 305 306 309 311 309 308 306 303 302 301 298
258 266 278 293 303 308 310 310 309 310 308 307 307 308 310 309 307 305 303 302 301 301
256 262 276 291 300 306 308 309 309 309 308 306 306 306 306 309 307 305 304 303 304 303
253 267 279 291 300 305 307 308 309 307 306 304 304 305 305 306 305 302 302 303 303 302
260 270 281 290 298 303 305 306 307 306 305 304 303 304 303 306 304 300 299 300 299 299
261 272 283 291 296 300 303 303 304 303 302 302 300 301 303 305 303 300 301 300 297 295
269 280 288 293 296 299 300 300 300 300 300 299 298 299 301 301 300 302 302 299 298 300
Wind_Speed_850mb
32 35 38 41 45 48 50 51 53 55 58 61 61 63 63 67 69 72 78 81 83 85
31 34 37 41 45 49 52 55 58 60 64 66 68 67 65 68 71 74 78 82 86 91
26 27 29 32 34 37 39 43 46 49 54 58 62 66 67 68 69 69 76 81 83 86
26 27 28 30 33 36 38 40 42 44 44 45 46 48 56 64 67 71 72 74 79 89
28 29 29 30 32 34 36 39 42 45 46 47 47 47 49 53 58 66 72 74 76 86
30 28 28 28 30 32 37 40 43 46 48 49 49 50 49 51 52 54 61 67 71 80
32 29 27 27 29 32 38 43 46 49 50 50 52 50 49 53 56 59 62 62 66 73
34 30 26 27 32 37 42 47 52 56 57 58 59 57 56 57 61 65 71 72 72 72
39 35 31 35 42 48 53 57 62 65 67 68 68 66 63 64 70 74 77 79 79 79
42 38 37 42 49 56 63 68 72 76 77 77 77 76 76 75 80 84 85 85 86 90
43 43 44 49 56 65 73 79 86 89 89 88 87 86 86 86 88 91 91 90 89 95
44 52 56 61 69 77 85 91 97 101 102 100 101 94 90 88 89 95 97 91 91 95
55 60 65 70 78 87 93 100 105 112 110 109 110 101 93 90 93 97 96 97 96 96
57 64 71 79 85 93 101 109 115 119 121 117 113 112 102 93 93 93 96 100 106 104
Wind_Direction_850mb
243 251 257 261 265 270 274 278 282 285 287 289 291 290 286 285 284 285 285 285 283 283
241 247 254 260 266 271 276 282 284 286 287 288 290 291 291 287 284 283 283 285 287 287
250 261 270 276 280 282 284 287 289 290 291 291 291 291 291 289 287 282 281 283 283 282
275 280 283 285 286 287 289 290 292 294 297 300 302 299 291 287 287 285 282 278 277 281
275 278 280 283 286 290 293 295 298 298 298 300 302 303 304 300 292 288 286 283 280 280
262 265 274 282 289 293 296 298 298 299 300 301 303 305 307 305 303 300 293 290 286 283
253 265 278 289 297 303 307 307 304 303 304 306 305 307 309 306 305 303 300 298 295 289
258 268 280 293 303 309 311 312 311 308 305 305 306 309 311 309 308 306 303 302 301 298
258 266 278 293 303 308 310 310 309 310 308 307 307 308 310 309 307 305 303 302 301 301
256 262 276 291 300 306 308 309 309 309 308 306 306 306 306 309 307 305 304 303 304 303
253 267 279 291 300 305 307 308 309 307 306 304 304 305 305 306 305 302 302 303 303 302
260 270 281 290 298 303 305 306 307 306 305 304 303 304 303 306 304 300 299 300 299 299
261 272 283 291 296 300 303 303 304 303 302 302 300 301 303 305 303 300 301 300 297 295
269 280 288 293 296 299 300 300 300 300 300 299 298 299 301 301 300 302 302 299 298 300